Voltar ao catálogo

STARLINK-11233

AtivoComunicaçõesVLEO
NORAD 61061·PAYLOAD·🇺🇸 United States

Lançado Sep 13, 2024 de Vandenberg Space Force Base

Loading…

Próximas Passagens (próximas 24 horas)

TLE

AtualizadoSource: CelesTrak SupGP

Época: Sep 14, 2026, 20:57 UTC

1 61061C 24164M   26257.87340278 -.00029891  00000+0 -24627-3 0  2573
2 61061  53.1571  98.7889 0001093  84.1977 165.8399 15.69719966    17

Acompanhe STARLINK-11233 em tempo real com AllMySat

Download on the App Store